SCP
0 0 0 0 0 0 0 0 0 0 0 0 0 0 0 0 0 0 0 0 0 0 0 0 0 0 0 0 0 0 0 0 0 0 0 0 0 0 0 0 0 0 0 0 0 0 0 0 0 0 0 0 0 0
0 0 0 0 0 0 0 0 0 0 0 0 0 0 0 0 -0 0 0 0 0 0 0 0 0 0 0 0 0 0 0 0 0 0 0 0 0 0 0 0 0 0 0 0 0 0 0 0 0 0 0 0 0 0
0 0 0 0 0 0 0 0 0 0 0 0 0 0 0 0 0 0 0 0 0 0 0 0 0 0 0 0 0 0 0 0 0 0 0 0 0 0 0 0 0 0 0 0 0 0 0 0 0 0 0 0 0 0
0 0 0 0 0 0 0 0 0 0 0 0 0 0 0 0 0 0 0 0 0 0 0 0 0 0 0 0 0 0 0 0 0 0 0 0 0 0 0 0 0 0 0 0 0 0 0 0 0 0 0 0 0 0
0 0 0 0 0 0 0 0 0 0 0 0 0 0 0 0 0 0 0 0 0 0 0 0 0 0 0 0 0 0 0 0 0 0 0 0 0 0 0 0 0 0 0 0 0 0 0 0 0 0 0 0 0 0
0 0 0 0 0 0 0 0 0 0 0 0 0 0 0 0 0 0 0 0 0 0 0 0 0 0 0 0 0 0 0 0 0 0 0 0 0 0 0 0 0 0 0 0 0 0 0 0 0 0 0 0 0 0
0 0 0 0 0 0 0 0 0 0 0 0 0 0 0 0 0 0 0 0 0 0 0 0 0 0 0 0 0 0 0 0 0 0 0 0 0 0 0 0 0 0 0 0 0 0 0 0 0 0 0 0 0 0
0 0 0 0 0 0 0 0 0 0 0 0 0 0 0 0 0 0 0 0 0 0 0 0 0 0 0 0 0 0 0 0 0 0 0 0 0 0 0 0 0 0 0 0 0 0 0 0 0 0 0 0 0 0
0 0 0 0 0 0 0 0 0 0 0 0 0 0 0 0 0 0 0 0 0 0 0 0 0 0 0 0 0 0 0 0 0 0 0 0 0 0 0 0 0 0 0 0 0 0 0 0 0 0 0 0 0 0
0 0 0 -0 0 0 0 0 0 0 0 0 0 0 0 0 0 0 0 0 0 0 0 0 0 0 0 0 0 0 0 0 0 0 0 0 0 0 0 0 0 0 0 0 0 0 0 0 0 0 0 0 0 0
0 0 0 0 0 0 0 0 0 0 0 0 0 0 0 0 0 0 0 0 0 0 0 0 0 0 0 0 0 0 0 0 0 0 0 0 0 0 0 0 0 0 0 0 0 0 0 0 0 0 0 0 0 0
0 0 0 0 0 0 0 0 0 0 0 0 0 0 0 0 0 0 0 0 0 0 0 0 0 0 0 0 0 0 0 0 0 0 0 0 0 0 0 0 0 0 0 0 0 0 0 0 0 0 0 0 0 0
0 0 0 0 0 0 0 0 0 0 0 0 0 0 0 0 0 0 0 0 0 0 0 0 0 0 0 0 0 0 0 0 0 0 0 0 0 0 0 0 0 0 0 0 0 0 0 0 0 0 0 0 0 0
0 0 0 0 0 0 0 0 0 0 0 0 0 0 0 0 0 0 0 0 0 0 0 0 0 0 0 0 0 0 0 0 0 0 0 0 0 0 0 0 0 0 0 0 0 0 0 0 0 0 0 0 0 0
0 0 0 0 0 0 0 0 0 0 0 0 0 0 0 0 0 0 0 0 0 0 0 0 0 0 0 0 0 0 0 0 0 0 0 0 0 0 0 0 0 0 0 0 0 0 0 0 0 0 0 0 0 0
0 0 0 0 0 0 0 0 0 0 0 0 0 0 0 0 0 0 0 0 0 0 0 0 0 0 0 0 0 0 0 0 0 0 0 0 0 0 0 0 0 0 0 0 0 0 0 0 0 0 0 0 0 0
0 0 0 0 0 0 0 0 0 0 0 0 0 0 0 0 0 0 0 0 0 0 0 0 0 0 0 0 0 0 0 0 0 0 0 0 0 0 0 0 0 0 0 0 0 0 0 0 0 0 0 0 0 0
0 0 0 0 0 0 0 0 0 0 0 0 0 0 0 0 0 0 0 0 0 0 0 0 0 0 0 0 0 0 0 0 0 0 0 0 0 0 0 0 0 0 0 0 0 0 0 0 0 0 0 0 0 0
0 0 0 0 0 0 0 0 0 0 0 0 0 0 0 0 0 0 0 0 0 0 0 0 0 0 0 0 0 0 0 0 0 0 0 0 0 0 0 0 0 0 0 0 0 0 0 0 0 0 0 0 0 0
0 0 0 0 0 0 0 0 0 0 0 0 0 0 0 0 0 0 0 0 0 0 0 0 0 0 0 0 0 0 0 0 0 0 0 0 0 0 0 0 0 0 0 0 0 0 0 0 0 0 0 0 0 0
0 0 0 0 0 0 0 0 0 0 0 0 0 0 0 0 0 0 0 0 0 0 0 0 0 0 0 0 0 0 0 0 0 0 0 0 0 0 0 0 0 0 0 0 0 0 0 0 0 0 0 0 0 0
0 0 0 0 0 0 0 0 0 0 0 0 0 0 0 0 0 0 0 0 0 0 0 0 0 0 0 0 0 0 0 0 0 0 0 0 0 0 0 0 0 0 0 0 0 0 0 0 0 0 0 0 0 0
0 0 0 0 0 0 0 0 0 0 0 0 0 0 0 0 0 0 0 0 0 0 0 0 0 0 0 0 0 0 0 0 0 0 0 0 0 0 0 0 0 0 0 0 0 0 0 0 0 0 0 0 0 0
-0 0 0 0 0 0 0 0 0 0 0 0 0 0 0 0 0 0 0 0 0 0 0 0 0 0 0 0 0 0 0 0 0 0 0 0 0 0 0 0 0 0 0 0 0 0 0 0 0 0 0 0 0 0
-0 -0 0 0 0 0 0 0 0 0 0 0 0 0 0 0 0 0 0 0 0 0 0 0 0 0 0 0 0 0 0 0 0 0 0 0 0 0 0 0 0 0 0 0 0 0 0 0 0 0 0 0 0 0
-0 -0 0 0 0 0 0 0 0 0 0 0 0 0 0 0 0 0 0 0 0 0 0 0 0 0 0 0 0 0 0 0 0 0 0 0 0 0 0 0 0 0 0 0 0 0 0 0 0 0 0 0 0 0
-0 -0 0 0 0 0 0 0 0 0 0 0 0 0 0 0 0 0 0 0 0 0 0 0 0 0 0 0 0 0 0 0 0 0 0 0 0 0 0 0 0 0 0 0 0 0 0 0 0 0 0 0 0 0
0 0 0 0 0 0 0 0 0 0 0 0 0 0 0 0 0 0 0 0 0 0 0 0 0 0 0 0 0 0 0 0 0 0 0 0 0 0 0 0 0 0 0 0 0 0 0 0 0 0 0 0 0 0
0 0 0 0 0 0 0 0 0 0 0 0 0 0 0 0 0 0 0 0 0 0 0 0 0 0 0 0 0 0 0 0 0 0 0 0 0 0 0 0 0 0 0 0 0 0 0 0 0 0 0 0 0 0
0 0 0 0 0 0 0 0 0 0 0 0 0 0 0 0 0 0 0 0 0 0 0 0 0 0 0 0 0 0 0 0 0 0 0 0 0 0 0 0 0 0 0 0 0 0 0 0 0 0 0 0 0 0
0 0 0 0 0 0 0 0 0 0 0 0 0 0 0 0 0 0 0 0 0 0 0 0 0 0 0 0 0 0 0 0 0 0 0 0 0 0 0 0 0 0 0 0 0 0 0 0 0 0 0 0 0 0
0 0 0 0 0 0 0 0 0 0 0 0 0 0 0 0 0 0 0 0 0 0 0 0 0 0 0 0 0 0 0 0 0 0 0 0 0 0 0 0 0 0 0 0 0 0 0 0 0 0 0 0 0 0
0 0 0 0 0 0 0 0 0 0 0 0 0 0 0 0 0 0 0 0 0 0 0 0 0 0 0 0 0 0 0 0 0 0 0 0 0 0 0 0 0 0 0 0 0 0 0 0 0 0 0 0 0 0
Wind_Speed_500mb
69 68 68 66 68 62 64 60 60 61 52 47 48 49 47 49 49 55 53 39 45 17 19 13 17 9 15 21 10 18 12 1 5 7 7 8 6 13 5 8 14 15 17 11 5 9 20 24 13 14 11 17 24 28
67 69 70 66 67 66 66 62 64 60 78 63 61 57 53 51 54 55 50 44 44 26 12 23 43 32 22 27 34 47 11 14 21 6 1 6 3 2 6 8 7 5 14 12 20 14 7 52 21 52 24 19 28 30
65 64 65 66 71 66 64 64 62 59 57 58 51 56 60 65 57 59 60 46 43 44 35 46 41 27 43 33 32 26 15 20 18 13 16 6 6 7 8 9 4 9 11 6 8 11 17 40 52 30 40 39 36 38
57 62 66 65 71 60 61 61 62 65 63 60 62 61 57 69 60 62 74 65 56 13 10 19 24 33 45 45 43 40 30 40 22 26 8 6 6 17 7 3 7 12 15 9 6 9 12 36 53 59 53 50 50 50
50 54 58 64 63 62 69 66 62 59 62 68 57 59 56 55 52 58 61 69 64 55 11 8 18 32 25 53 54 48 47 43 42 14 4 6 11 8 1 3 8 21 15 8 13 40 32 41 50 45 51 48 47 46
46 51 61 70 69 67 71 60 59 61 51 52 53 55 55 55 50 54 33 59 68 61 14 6 13 27 31 49 64 64 56 46 39 20 9 11 12 16 7 9 39 61 56 66 43 66 57 56 56 55 52 48 51 52
39 42 48 61 73 63 61 56 59 57 55 49 50 53 53 54 57 59 13 19 44 72 16 5 5 17 43 45 45 55 54 33 28 18 15 13 12 26 5 13 46 50 58 69 74 68 51 68 55 63 52 51 53 53
42 41 37 39 36 48 56 55 54 52 53 50 47 39 36 37 47 44 67 35 38 57 19 7 5 3 30 20 16 30 27 39 32 21 11 10 17 16 17 30 55 70 69 61 67 63 70 70 64 60 54 52 53 52
30 39 41 42 56 57 61 56 56 53 47 47 44 38 36 39 36 42 32 48 48 27 8 10 13 11 33 14 20 18 22 7 21 13 9 24 9 16 16 37 52 85 66 73 65 65 65 67 70 65 58 58 59 58
18 19 28 43 52 52 56 58 59 57 57 48 44 25 15 24 33 28 21 23 40 29 25 6 17 5 21 9 7 11 12 6 8 9 22 9 18 68 45 58 71 81 79 69 54 53 54 56 57 56 58 58 59 54
8 4 4 12 15 51 49 54 60 60 56 56 22 17 21 37 34 23 15 13 14 8 20 25 31 10 28 9 6 17 7 5 6 7 13 6 12 35 73 88 102 104 92 77 66 68 58 54 52 45 47 48 48 48
7 10 9 19 15 32 44 45 48 69 41 44 27 32 30 18 16 11 11 6 8 12 17 11 22 26 24 17 7 14 9 8 10 13 8 7 18 51 64 78 92 83 76 70 68 59 55 48 39 35 34 39 42 41
4 2 5 3 10 13 21 26 44 41 43 41 15 16 15 12 15 10 19 4 5 8 22 22 6 24 14 15 6 8 13 12 15 10 9 11 29 59 68 71 76 71 59 54 49 46 43 39 35 33 32 35 38 38
9 5 7 9 10 14 12 14 18 24 25 10 11 8 9 5 8 7 8 9 6 21 51 41 12 8 13 8 6 10 7 8 11 9 15 13 54 49 47 56 58 61 52 47 45 42 38 33 29 27 28 29 32 33
7 5 5 12 18 17 20 25 25 30 5 12 12 11 10 10 7 11 13 9 7 9 44 18 8 12 5 7 8 7 9 10 12 13 10 25 31 45 50 50 51 49 48 44 39 34 30 26 23 22 23 24 25 25
13 5 9 2 8 19 30 25 27 26 9 6 6 5 4 6 5 6 8 10 11 26 22 10 7 8 9 8 9 14 15 15 10 7 8 15 21 24 29 34 37 38 37 35 31 26 20 18 17 17 17 18 17 17
14 7 15 9 15 10 20 33 26 15 8 11 4 12 5 13 9 7 5 4 20 31 7 3 11 12 5 7 9 8 11 6 4 4 1 4 5 12 22 27 27 29 30 27 23 21 18 16 13 11 11 12 13 15
10 9 3 14 18 15 15 20 15 7 8 7 3 3 6 9 13 15 9 8 5 2 11 3 3 7 7 8 6 3 9 7 9 4 6 7 12 18 23 26 28 26 24 22 18 16 15 13 10 7 7 8 10 12
19 10 19 6 17 13 9 4 4 6 7 6 8 11 9 10 11 5 5 11 12 6 2 5 3 2 1 6 4 8 8 6 7 4 7 11 16 18 22 25 27 27 24 22 21 18 15 11 8 5 5 6 6 6
13 4 3 14 13 8 8 8 7 9 4 3 6 9 7 7 7 10 7 7 7 5 8 8 6 6 7 7 8 7 10 7 5 12 16 18 20 22 23 22 24 25 24 22 19 14 11 9 7 5 3 4 3 2
17 7 2 9 8 11 12 7 11 9 7 8 8 7 7 7 8 10 12 14 14 12 5 11 11 13 11 8 7 6 5 5 5 4 5 22 24 24 24 25 23 20 16 16 14 14 13 11 10 9 6 4 4 6
17 9 5 8 9 9 13 14 10 7 6 8 6 5 9 4 10 10 11 22 12 11 12 14 15 15 10 8 11 10 8 6 5 1 10 19 27 27 25 21 19 20 20 19 17 15 13 12 8 5 3 3 4 5
18 11 9 11 8 12 6 9 7 9 6 4 4 6 5 4 5 7 11 10 10 24 22 17 15 13 11 10 10 9 8 10 11 14 22 18 21 21 22 22 22 15 16 17 15 12 9 8 7 5 3 2 3 6
15 10 14 13 20 5 5 11 8 7 7 6 4 5 5 6 10 9 7 8 20 28 20 17 15 10 9 8 8 9 12 14 15 18 20 16 20 24 23 20 18 16 11 9 9 9 9 8 6 5 2 3 5 6
9 21 15 13 16 10 10 8 9 8 6 6 5 5 5 10 5 7 5 15 26 31 26 22 17 13 10 9 10 13 15 18 16 18 22 20 16 17 15 13 11 9 9 9 9 8 8 6 4 2 3 6 7 9
16 19 12 6 11 8 7 5 8 6 5 5 6 7 6 4 8 6 4 24 24 26 27 23 22 17 15 14 15 16 16 16 15 12 13 13 13 11 7 6 7 6 6 7 8 8 6 4 4 6 8 10 12 14
12 9 14 16 9 5 5 7 3 6 9 9 6 11 5 9 8 4 15 23 30 23 13 11 13 16 16 14 11 10 10 8 8 9 8 8 7 6 6 6 5 3 2 4 6 6 6 8 10 12 13 15 17 20
10 20 8 22 11 15 6 6 8 8 6 13 4 12 7 7 2 16 13 25 20 13 14 13 13 14 14 14 12 10 7 5 5 8 9 8 8 6 4 3 2 2 2 2 3 6 9 12 15 18 21 24 25 26
11 28 12 6 7 13 13 8 5 7 12 6 4 6 6 10 17 18 19 18 16 16 15 15 15 13 10 9 9 7 7 6 3 4 8 12 11 8 6 3 2 3 4 6 9 12 16 20 24 29 33 37 41 43
16 28 10 10 8 9 10 11 8 13 21 25 31 42 37 41 58 43 31 27 24 24 21 17 14 10 10 7 10 9 9 9 8 8 6 5 2 1 3 5 7 10 14 17 20 23 27 32 35 38 43 46 48 51
20 18 6 12 7 9 11 15 20 19 19 21 28 25 19 17 39 58 52 46 39 31 25 26 23 18 11 8 5 4 5 5 5 3 4 7 11 14 17 20 23 27 33 39 42 44 47 48 50 53 56 57 56 57
21 15 8 6 5 9 12 7 6 8 6 7 8 9 9 10 12 32 49 30 33 41 41 36 29 28 21 14 8 4 8 14 18 20 23 26 29 32 35 39 43 46 49 49 49 50 51 54 56 56 57 58 57 57
5 9 10 6 4 5 14 8 3 6 7 6 8 16 18 10 11 27 49 36 20 23 31 38 41 22 17 15 15 20 23 28 31 33 36 39 43 45 47 45 48 52 54 57 56 56 57 59 61 62 62 62 61 60
Wind_Direction_500mb
249 243 239 243 238 240 233 234 238 220 218 215 210 212 215 213 214 214 222 213 213 214 243 219 224 200 150 168 142 154 103 252 97 163 156 189 164 213 143 178 174 162 163 201 185 217 256 178 121 164 200 167 185 208
249 246 232 237 241 237 229 231 235 235 221 219 218 217 214 210 208 209 219 219 212 220 255 240 239 227 220 212 183 164 177 160 165 108 239 102 165 33 163 221 146 226 190 182 188 203 219 177 196 209 228 232 227 218
247 245 244 241 239 237 230 231 232 229 233 237 225 226 229 215 210 209 215 208 210 220 246 254 247 218 219 214 216 170 203 175 186 166 158 171 193 121 168 243 128 255 159 211 97 221 215 206 211 217 224 242 251 252
242 246 241 240 232 233 234 230 231 233 233 232 230 234 234 217 219 210 215 214 210 185 205 245 219 229 221 217 214 216 229 195 188 178 153 145 164 191 195 179 198 200 151 172 264 281 238 233 226 242 244 253 261 263
252 247 241 233 234 231 230 232 233 234 231 228 226 225 224 223 219 219 224 221 221 201 192 214 219 222 210 214 217 216 217 200 177 160 126 203 168 136 158 91 252 194 203 190 234 237 233 246 257 265 253 252 256 258
258 253 246 239 228 229 229 228 227 230 230 230 225 226 225 224 224 216 211 230 229 221 214 190 228 216 218 211 214 217 213 203 193 186 195 205 172 162 162 213 246 242 235 241 242 256 255 258 265 266 256 259 262 260
256 253 252 245 216 221 225 227 221 223 221 227 227 226 216 220 215 210 193 221 205 206 193 207 277 202 204 205 211 214 212 203 205 201 210 178 175 183 200 227 242 243 248 250 251 253 257 259 254 265 262 268 266 262
260 249 248 237 233 215 217 217 220 221 218 214 215 223 229 225 217 223 223 234 182 187 188 184 216 169 190 176 172 195 194 197 202 204 189 160 169 196 236 236 248 259 259 259 258 253 254 263 264 264 264 262 261 259
264 239 231 243 239 229 218 218 214 215 211 210 205 201 199 207 215 231 218 188 192 188 200 150 160 205 168 151 170 170 174 180 189 203 181 161 179 222 206 216 232 249 244 247 257 259 257 254 261 262 260 258 258 257
247 253 256 265 227 226 203 209 208 209 207 192 182 176 191 204 201 196 171 193 190 198 199 170 144 163 164 135 144 133 177 205 192 216 151 214 231 240 240 246 249 256 259 252 238 243 242 246 255 260 257 256 254 250
67 302 298 223 210 188 194 203 202 196 194 185 159 163 166 159 158 179 196 211 174 182 182 170 181 144 184 156 155 187 170 178 200 222 185 206 249 238 240 242 248 255 259 261 257 260 261 264 263 259 253 248 242 243
29 29 31 70 145 185 191 201 190 179 178 173 150 137 151 177 183 191 178 188 179 195 174 163 178 173 160 157 133 171 178 181 203 141 167 234 244 241 241 243 253 255 256 259 259 253 252 249 249 250 246 240 238 238
13 43 68 66 59 101 137 145 170 169 143 142 149 158 175 164 218 210 166 216 152 166 177 165 164 159 137 171 139 174 185 207 114 178 214 230 246 246 245 249 251 252 250 243 239 235 231 233 237 239 238 232 230 229
15 266 217 169 171 183 182 190 179 190 176 153 158 195 192 219 198 183 187 186 197 183 176 166 122 144 161 164 160 184 182 125 194 197 225 230 235 243 247 243 241 242 235 226 220 219 220 224 225 226 224 224 226 227
360 31 186 214 216 206 202 196 199 205 209 169 174 203 199 200 117 168 169 154 189 200 160 140 124 151 157 187 181 116 162 200 201 220 226 244 253 247 243 236 230 225 217 211 209 208 210 212 217 221 219 221 228 236
316 224 162 342 218 212 210 208 211 213 214 243 222 134 37 91 326 145 188 172 172 167 167 156 160 190 189 172 148 202 164 207 227 211 254 275 256 246 232 224 217 208 203 198 195 196 203 208 211 214 219 223 231 245
303 251 245 278 244 226 199 196 201 205 233 168 143 127 212 103 145 134 116 159 170 160 187 183 197 203 120 178 195 180 202 221 349 131 158 245 251 225 206 193 189 188 183 180 181 178 184 193 200 210 220 235 248 257
313 227 207 219 224 199 190 200 168 153 69 45 128 124 81 104 120 126 138 121 165 264 148 183 143 190 195 177 252 286 51 46 47 103 142 165 166 164 163 172 167 166 160 155 154 159 162 172 178 202 238 268 277 280
289 256 228 161 164 162 159 103 64 95 77 78 87 96 90 101 117 143 210 223 208 211 235 120 189 210 1 25 23 12 358 276 211 155 135 145 146 144 148 148 149 152 150 145 147 149 153 161 176 201 245 278 285 302
158 105 227 213 199 152 105 67 77 87 100 101 94 74 74 72 74 61 69 124 118 36 41 28 36 11 353 353 353 335 343 354 178 138 131 138 142 141 144 144 144 143 143 143 146 151 154 155 160 171 174 205 224 261
214 262 260 174 140 73 83 70 67 74 96 82 81 66 49 67 62 50 30 40 68 38 51 29 21 12 13 5 5 23 40 119 199 235 235 163 156 149 150 149 149 147 148 147 151 155 153 149 152 158 162 212 265 281
195 208 146 77 79 75 75 50 78 88 95 100 77 70 56 37 18 19 34 52 51 25 6 349 348 356 9 35 46 57 55 45 31 74 159 168 161 158 159 160 161 157 150 149 148 150 153 158 168 172 182 235 270 294
133 133 67 47 82 50 33 42 63 32 60 20 54 61 36 39 21 41 75 65 58 1 360 5 6 12 26 47 53 57 73 82 98 114 129 147 151 154 158 154 143 143 150 153 152 159 175 168 177 170 175 218 301 311
91 59 36 40 31 48 29 32 43 48 51 34 42 80 41 357 7 61 71 43 3 7 16 13 10 21 35 39 60 78 89 97 110 120 122 134 146 145 143 144 146 151 157 172 164 172 171 158 146 149 194 296 307 306
83 12 21 7 18 24 35 21 7 41 49 357 57 46 14 353 65 54 52 360 1 10 15 17 21 29 35 55 80 94 102 105 103 117 117 118 125 138 141 145 154 163 175 181 178 163 151 151 165 211 286 300 297 301
67 10 38 329 2 40 355 47 30 11 359 54 33 335 354 53 60 45 3 348 350 349 356 8 23 49 62 87 98 102 103 105 109 115 124 133 138 137 139 158 168 174 174 177 170 167 178 209 249 278 287 293 301 306
52 345 12 25 2 342 44 19 18 43 46 24 351 348 27 61 53 338 345 354 351 353 14 34 63 76 75 82 86 90 89 95 103 118 127 130 137 150 165 175 188 184 175 183 197 209 238 269 285 290 293 293 300 304
67 26 26 340 24 31 93 43 35 28 358 348 297 32 68 35 327 333 336 343 358 40 58 66 74 76 84 83 87 97 97 99 124 124 114 109 109 111 113 113 124 155 196 232 269 283 286 288 291 293 295 299 302 303
32 354 353 355 66 53 42 30 40 20 351 3 37 63 72 34 15 23 23 31 52 65 63 69 70 73 84 85 86 79 73 81 105 141 136 119 107 89 87 58 358 326 308 303 300 298 296 295 296 296 300 301 301 302
1 1 1 23 46 36 10 24 39 52 65 83 98 105 87 68 54 51 53 56 61 60 60 60 55 62 62 63 56 62 77 89 111 132 147 142 112 338 318 304 302 305 307 308 303 298 294 293 292 291 293 295 296 296
354 352 41 47 77 40 43 75 82 87 90 97 112 114 115 93 57 41 48 53 58 61 60 52 45 42 41 47 60 67 67 67 64 30 320 303 301 298 297 299 302 301 302 304 304 301 297 295 295 296 297 297 298 299
4 21 12 57 52 40 42 47 66 85 93 70 67 98 99 78 56 25 9 19 39 44 43 37 34 37 37 42 55 25 326 309 306 302 298 297 296 296 296 297 299 299 299 299 298 298 298 299 300 301 300 300 300 300
5 24 41 60 36 38 6 11 121 109 85 86 78 77 77 81 95 27 21 16 23 20 16 17 16 2 352 338 296 289 298 304 298 292 291 291 291 293 296 299 295 293 296 297 298 299 299 300 299 299 299 299 299 300
Wind_Speed_850mb
69 68 68 66 68 62 64 60 60 61 52 47 48 49 47 49 49 55 53 39 45 17 19 13 17 9 15 21 10 18 12 1 5 7 7 8 6 13 5 8 14 15 17 11 5 9 20 24 13 14 11 17 24 28
67 69 70 66 67 66 66 62 64 60 78 63 61 57 53 51 54 55 50 44 44 26 12 23 43 32 22 27 34 47 11 14 21 6 1 6 3 2 6 8 7 5 14 12 20 14 7 52 21 52 24 19 28 30
65 64 65 66 71 66 64 64 62 59 57 58 51 56 60 65 57 59 60 46 43 44 35 46 41 27 43 33 32 26 15 20 18 13 16 6 6 7 8 9 4 9 11 6 8 11 17 40 52 30 40 39 36 38
57 62 66 65 71 60 61 61 62 65 63 60 62 61 57 69 60 62 74 65 56 13 10 19 24 33 45 45 43 40 30 40 22 26 8 6 6 17 7 3 7 12 15 9 6 9 12 36 53 59 53 50 50 50
50 54 58 64 63 62 69 66 62 59 62 68 57 59 56 55 52 58 61 69 64 55 11 8 18 32 25 53 54 48 47 43 42 14 4 6 11 8 1 3 8 21 15 8 13 40 32 41 50 45 51 48 47 46
46 51 61 70 69 67 71 60 59 61 51 52 53 55 55 55 50 54 33 59 68 61 14 6 13 27 31 49 64 64 56 46 39 20 9 11 12 16 7 9 39 61 56 66 43 66 57 56 56 55 52 48 51 52
39 42 48 61 73 63 61 56 59 57 55 49 50 53 53 54 57 59 13 19 44 72 16 5 5 17 43 45 45 55 54 33 28 18 15 13 12 26 5 13 46 50 58 69 74 68 51 68 55 63 52 51 53 53
42 41 37 39 36 48 56 55 54 52 53 50 47 39 36 37 47 44 67 35 38 57 19 7 5 3 30 20 16 30 27 39 32 21 11 10 17 16 17 30 55 70 69 61 67 63 70 70 64 60 54 52 53 52
30 39 41 42 56 57 61 56 56 53 47 47 44 38 36 39 36 42 32 48 48 27 8 10 13 11 33 14 20 18 22 7 21 13 9 24 9 16 16 37 52 85 66 73 65 65 65 67 70 65 58 58 59 58
18 19 28 43 52 52 56 58 59 57 57 48 44 25 15 24 33 28 21 23 40 29 25 6 17 5 21 9 7 11 12 6 8 9 22 9 18 68 45 58 71 81 79 69 54 53 54 56 57 56 58 58 59 54
8 4 4 12 15 51 49 54 60 60 56 56 22 17 21 37 34 23 15 13 14 8 20 25 31 10 28 9 6 17 7 5 6 7 13 6 12 35 73 88 102 104 92 77 66 68 58 54 52 45 47 48 48 48
7 10 9 19 15 32 44 45 48 69 41 44 27 32 30 18 16 11 11 6 8 12 17 11 22 26 24 17 7 14 9 8 10 13 8 7 18 51 64 78 92 83 76 70 68 59 55 48 39 35 34 39 42 41
4 2 5 3 10 13 21 26 44 41 43 41 15 16 15 12 15 10 19 4 5 8 22 22 6 24 14 15 6 8 13 12 15 10 9 11 29 59 68 71 76 71 59 54 49 46 43 39 35 33 32 35 38 38
9 5 7 9 10 14 12 14 18 24 25 10 11 8 9 5 8 7 8 9 6 21 51 41 12 8 13 8 6 10 7 8 11 9 15 13 54 49 47 56 58 61 52 47 45 42 38 33 29 27 28 29 32 33
7 5 5 12 18 17 20 25 25 30 5 12 12 11 10 10 7 11 13 9 7 9 44 18 8 12 5 7 8 7 9 10 12 13 10 25 31 45 50 50 51 49 48 44 39 34 30 26 23 22 23 24 25 25
13 5 9 2 8 19 30 25 27 26 9 6 6 5 4 6 5 6 8 10 11 26 22 10 7 8 9 8 9 14 15 15 10 7 8 15 21 24 29 34 37 38 37 35 31 26 20 18 17 17 17 18 17 17
14 7 15 9 15 10 20 33 26 15 8 11 4 12 5 13 9 7 5 4 20 31 7 3 11 12 5 7 9 8 11 6 4 4 1 4 5 12 22 27 27 29 30 27 23 21 18 16 13 11 11 12 13 15
10 9 3 14 18 15 15 20 15 7 8 7 3 3 6 9 13 15 9 8 5 2 11 3 3 7 7 8 6 3 9 7 9 4 6 7 12 18 23 26 28 26 24 22 18 16 15 13 10 7 7 8 10 12
19 10 19 6 17 13 9 4 4 6 7 6 8 11 9 10 11 5 5 11 12 6 2 5 3 2 1 6 4 8 8 6 7 4 7 11 16 18 22 25 27 27 24 22 21 18 15 11 8 5 5 6 6 6
13 4 3 14 13 8 8 8 7 9 4 3 6 9 7 7 7 10 7 7 7 5 8 8 6 6 7 7 8 7 10 7 5 12 16 18 20 22 23 22 24 25 24 22 19 14 11 9 7 5 3 4 3 2
17 7 2 9 8 11 12 7 11 9 7 8 8 7 7 7 8 10 12 14 14 12 5 11 11 13 11 8 7 6 5 5 5 4 5 22 24 24 24 25 23 20 16 16 14 14 13 11 10 9 6 4 4 6
17 9 5 8 9 9 13 14 10 7 6 8 6 5 9 4 10 10 11 22 12 11 12 14 15 15 10 8 11 10 8 6 5 1 10 19 27 27 25 21 19 20 20 19 17 15 13 12 8 5 3 3 4 5
18 11 9 11 8 12 6 9 7 9 6 4 4 6 5 4 5 7 11 10 10 24 22 17 15 13 11 10 10 9 8 10 11 14 22 18 21 21 22 22 22 15 16 17 15 12 9 8 7 5 3 2 3 6
15 10 14 13 20 5 5 11 8 7 7 6 4 5 5 6 10 9 7 8 20 28 20 17 15 10 9 8 8 9 12 14 15 18 20 16 20 24 23 20 18 16 11 9 9 9 9 8 6 5 2 3 5 6
9 21 15 13 16 10 10 8 9 8 6 6 5 5 5 10 5 7 5 15 26 31 26 22 17 13 10 9 10 13 15 18 16 18 22 20 16 17 15 13 11 9 9 9 9 8 8 6 4 2 3 6 7 9
16 19 12 6 11 8 7 5 8 6 5 5 6 7 6 4 8 6 4 24 24 26 27 23 22 17 15 14 15 16 16 16 15 12 13 13 13 11 7 6 7 6 6 7 8 8 6 4 4 6 8 10 12 14
12 9 14 16 9 5 5 7 3 6 9 9 6 11 5 9 8 4 15 23 30 23 13 11 13 16 16 14 11 10 10 8 8 9 8 8 7 6 6 6 5 3 2 4 6 6 6 8 10 12 13 15 17 20
10 20 8 22 11 15 6 6 8 8 6 13 4 12 7 7 2 16 13 25 20 13 14 13 13 14 14 14 12 10 7 5 5 8 9 8 8 6 4 3 2 2 2 2 3 6 9 12 15 18 21 24 25 26
11 28 12 6 7 13 13 8 5 7 12 6 4 6 6 10 17 18 19 18 16 16 15 15 15 13 10 9 9 7 7 6 3 4 8 12 11 8 6 3 2 3 4 6 9 12 16 20 24 29 33 37 41 43
16 28 10 10 8 9 10 11 8 13 21 25 31 42 37 41 58 43 31 27 24 24 21 17 14 10 10 7 10 9 9 9 8 8 6 5 2 1 3 5 7 10 14 17 20 23 27 32 35 38 43 46 48 51
20 18 6 12 7 9 11 15 20 19 19 21 28 25 19 17 39 58 52 46 39 31 25 26 23 18 11 8 5 4 5 5 5 3 4 7 11 14 17 20 23 27 33 39 42 44 47 48 50 53 56 57 56 57
21 15 8 6 5 9 12 7 6 8 6 7 8 9 9 10 12 32 49 30 33 41 41 36 29 28 21 14 8 4 8 14 18 20 23 26 29 32 35 39 43 46 49 49 49 50 51 54 56 56 57 58 57 57
5 9 10 6 4 5 14 8 3 6 7 6 8 16 18 10 11 27 49 36 20 23 31 38 41 22 17 15 15 20 23 28 31 33 36 39 43 45 47 45 48 52 54 57 56 56 57 59 61 62 62 62 61 60
Wind_Direction_850mb
249 243 239 243 238 240 233 234 238 220 218 215 210 212 215 213 214 214 222 213 213 214 243 219 224 200 150 168 142 154 103 252 97 163 156 189 164 213 143 178 174 162 163 201 185 217 256 178 121 164 200 167 185 208
249 246 232 237 241 237 229 231 235 235 221 219 218 217 214 210 208 209 219 219 212 220 255 240 239 227 220 212 183 164 177 160 165 108 239 102 165 33 163 221 146 226 190 182 188 203 219 177 196 209 228 232 227 218
247 245 244 241 239 237 230 231 232 229 233 237 225 226 229 215 210 209 215 208 210 220 246 254 247 218 219 214 216 170 203 175 186 166 158 171 193 121 168 243 128 255 159 211 97 221 215 206 211 217 224 242 251 252
242 246 241 240 232 233 234 230 231 233 233 232 230 234 234 217 219 210 215 214 210 185 205 245 219 229 221 217 214 216 229 195 188 178 153 145 164 191 195 179 198 200 151 172 264 281 238 233 226 242 244 253 261 263
252 247 241 233 234 231 230 232 233 234 231 228 226 225 224 223 219 219 224 221 221 201 192 214 219 222 210 214 217 216 217 200 177 160 126 203 168 136 158 91 252 194 203 190 234 237 233 246 257 265 253 252 256 258
258 253 246 239 228 229 229 228 227 230 230 230 225 226 225 224 224 216 211 230 229 221 214 190 228 216 218 211 214 217 213 203 193 186 195 205 172 162 162 213 246 242 235 241 242 256 255 258 265 266 256 259 262 260
256 253 252 245 216 221 225 227 221 223 221 227 227 226 216 220 215 210 193 221 205 206 193 207 277 202 204 205 211 214 212 203 205 201 210 178 175 183 200 227 242 243 248 250 251 253 257 259 254 265 262 268 266 262
260 249 248 237 233 215 217 217 220 221 218 214 215 223 229 225 217 223 223 234 182 187 188 184 216 169 190 176 172 195 194 197 202 204 189 160 169 196 236 236 248 259 259 259 258 253 254 263 264 264 264 262 261 259
264 239 231 243 239 229 218 218 214 215 211 210 205 201 199 207 215 231 218 188 192 188 200 150 160 205 168 151 170 170 174 180 189 203 181 161 179 222 206 216 232 249 244 247 257 259 257 254 261 262 260 258 258 257
247 253 256 265 227 226 203 209 208 209 207 192 182 176 191 204 201 196 171 193 190 198 199 170 144 163 164 135 144 133 177 205 192 216 151 214 231 240 240 246 249 256 259 252 238 243 242 246 255 260 257 256 254 250
67 302 298 223 210 188 194 203 202 196 194 185 159 163 166 159 158 179 196 211 174 182 182 170 181 144 184 156 155 187 170 178 200 222 185 206 249 238 240 242 248 255 259 261 257 260 261 264 263 259 253 248 242 243
29 29 31 70 145 185 191 201 190 179 178 173 150 137 151 177 183 191 178 188 179 195 174 163 178 173 160 157 133 171 178 181 203 141 167 234 244 241 241 243 253 255 256 259 259 253 252 249 249 250 246 240 238 238
13 43 68 66 59 101 137 145 170 169 143 142 149 158 175 164 218 210 166 216 152 166 177 165 164 159 137 171 139 174 185 207 114 178 214 230 246 246 245 249 251 252 250 243 239 235 231 233 237 239 238 232 230 229
15 266 217 169 171 183 182 190 179 190 176 153 158 195 192 219 198 183 187 186 197 183 176 166 122 144 161 164 160 184 182 125 194 197 225 230 235 243 247 243 241 242 235 226 220 219 220 224 225 226 224 224 226 227
360 31 186 214 216 206 202 196 199 205 209 169 174 203 199 200 117 168 169 154 189 200 160 140 124 151 157 187 181 116 162 200 201 220 226 244 253 247 243 236 230 225 217 211 209 208 210 212 217 221 219 221 228 236
316 224 162 342 218 212 210 208 211 213 214 243 222 134 37 91 326 145 188 172 172 167 167 156 160 190 189 172 148 202 164 207 227 211 254 275 256 246 232 224 217 208 203 198 195 196 203 208 211 214 219 223 231 245
303 251 245 278 244 226 199 196 201 205 233 168 143 127 212 103 145 134 116 159 170 160 187 183 197 203 120 178 195 180 202 221 349 131 158 245 251 225 206 193 189 188 183 180 181 178 184 193 200 210 220 235 248 257
313 227 207 219 224 199 190 200 168 153 69 45 128 124 81 104 120 126 138 121 165 264 148 183 143 190 195 177 252 286 51 46 47 103 142 165 166 164 163 172 167 166 160 155 154 159 162 172 178 202 238 268 277 280
289 256 228 161 164 162 159 103 64 95 77 78 87 96 90 101 117 143 210 223 208 211 235 120 189 210 1 25 23 12 358 276 211 155 135 145 146 144 148 148 149 152 150 145 147 149 153 161 176 201 245 278 285 302
158 105 227 213 199 152 105 67 77 87 100 101 94 74 74 72 74 61 69 124 118 36 41 28 36 11 353 353 353 335 343 354 178 138 131 138 142 141 144 144 144 143 143 143 146 151 154 155 160 171 174 205 224 261
214 262 260 174 140 73 83 70 67 74 96 82 81 66 49 67 62 50 30 40 68 38 51 29 21 12 13 5 5 23 40 119 199 235 235 163 156 149 150 149 149 147 148 147 151 155 153 149 152 158 162 212 265 281
195 208 146 77 79 75 75 50 78 88 95 100 77 70 56 37 18 19 34 52 51 25 6 349 348 356 9 35 46 57 55 45 31 74 159 168 161 158 159 160 161 157 150 149 148 150 153 158 168 172 182 235 270 294
133 133 67 47 82 50 33 42 63 32 60 20 54 61 36 39 21 41 75 65 58 1 360 5 6 12 26 47 53 57 73 82 98 114 129 147 151 154 158 154 143 143 150 153 152 159 175 168 177 170 175 218 301 311
91 59 36 40 31 48 29 32 43 48 51 34 42 80 41 357 7 61 71 43 3 7 16 13 10 21 35 39 60 78 89 97 110 120 122 134 146 145 143 144 146 151 157 172 164 172 171 158 146 149 194 296 307 306
83 12 21 7 18 24 35 21 7 41 49 357 57 46 14 353 65 54 52 360 1 10 15 17 21 29 35 55 80 94 102 105 103 117 117 118 125 138 141 145 154 163 175 181 178 163 151 151 165 211 286 300 297 301
67 10 38 329 2 40 355 47 30 11 359 54 33 335 354 53 60 45 3 348 350 349 356 8 23 49 62 87 98 102 103 105 109 115 124 133 138 137 139 158 168 174 174 177 170 167 178 209 249 278 287 293 301 306
52 345 12 25 2 342 44 19 18 43 46 24 351 348 27 61 53 338 345 354 351 353 14 34 63 76 75 82 86 90 89 95 103 118 127 130 137 150 165 175 188 184 175 183 197 209 238 269 285 290 293 293 300 304
67 26 26 340 24 31 93 43 35 28 358 348 297 32 68 35 327 333 336 343 358 40 58 66 74 76 84 83 87 97 97 99 124 124 114 109 109 111 113 113 124 155 196 232 269 283 286 288 291 293 295 299 302 303
32 354 353 355 66 53 42 30 40 20 351 3 37 63 72 34 15 23 23 31 52 65 63 69 70 73 84 85 86 79 73 81 105 141 136 119 107 89 87 58 358 326 308 303 300 298 296 295 296 296 300 301 301 302
1 1 1 23 46 36 10 24 39 52 65 83 98 105 87 68 54 51 53 56 61 60 60 60 55 62 62 63 56 62 77 89 111 132 147 142 112 338 318 304 302 305 307 308 303 298 294 293 292 291 293 295 296 296
354 352 41 47 77 40 43 75 82 87 90 97 112 114 115 93 57 41 48 53 58 61 60 52 45 42 41 47 60 67 67 67 64 30 320 303 301 298 297 299 302 301 302 304 304 301 297 295 295 296 297 297 298 299
4 21 12 57 52 40 42 47 66 85 93 70 67 98 99 78 56 25 9 19 39 44 43 37 34 37 37 42 55 25 326 309 306 302 298 297 296 296 296 297 299 299 299 299 298 298 298 299 300 301 300 300 300 300
5 24 41 60 36 38 6 11 121 109 85 86 78 77 77 81 95 27 21 16 23 20 16 17 16 2 352 338 296 289 298 304 298 292 291 291 291 293 296 299 295 293 296 297 298 299 299 300 299 299 299 299 299 300